TVARMINN Weather Reports


time (UTC)temp
F
wind
direction
speed
knots
gust
knots
rain 1hr
in
rain 24hr
in
rain mn
in
humidity
%
barometer
mb
20260507094728 46 0.0 0.0 0.00 0.00 0.00 58 1015.9
20260507092727 47 0.0 0.0 0.00 0.00 0.00 60 1015.9
20260507090728 46 0.0 0.0 0.00 0.00 0.00 60 1016.0
20260507084727 46 0.0 0.0 0.00 0.00 0.00 59 1015.9
20260507082728 46 0.0 0.0 0.00 0.00 0.00 55 1016.0
20260507080726 46 0.0 0.0 0.00 0.00 0.00 57 1016.0
20260507074727 48 0.0 0.0 0.00 0.00 0.00 51 1016.0
20260507072727 46 0.0 0.0 0.00 0.00 0.00 49 1016.0
20260507070727 46 0.0 0.0 0.00 0.00 0.00 46 1016.1
20260507064727 46 0.0 0.0 0.00 0.00 0.00 47 1016.0
20260507062727 46 0.0 0.0 0.00 0.00 0.00 44 1015.9
20260507060727 46 0.0 0.0 0.00 0.00 0.00 41 1015.8
20260507054727 45 0.0 0.0 0.00 0.00 0.00 53 1015.8
20260507052726 44 0.0 0.0 0.00 0.00 0.00 54 1015.7
20260507050726 43 0.0 0.0 0.00 0.00 0.00 53 1015.6
20260507044726 41 0.0 0.0 0.00 0.00 0.00 56 1015.6
20260507042726 40 0.0 0.0 0.00 0.00 0.00 59 1015.6
20260507040728 39 0.0 0.0 0.00 0.00 0.00 61 1015.5
20260507034727 39 0.0 0.0 0.00 0.00 0.00 55 1015.5
20260507032727 38 0.0 0.0 0.00 0.00 0.00 61 1015.4
20260507030727 38 0.0 0.0 0.00 0.00 0.00 56 1015.2
20260507024726 38 0.0 0.0 0.00 0.00 0.00 56 1015.2
20260507022726 38 0.0 0.0 0.00 0.00 0.00 56 1015.2
20260507020726 38 0.0 0.0 0.00 0.00 0.00 54 1015.2
20260507014726 39 0.0 0.0 0.00 0.00 0.00 56 1015.1
20260507012726 41 0.0 0.0 0.00 0.00 0.00 49 1015.1
20260507010726 41 0.0 0.0 0.00 0.00 0.00 49 1015.0
20260507004726 42 0.0 0.0 0.00 0.00 0.00 46 1014.8
20260507002726 41 0.0 0.0 0.00 0.00 0.00 50 1014.7
20260507000726 38 0.0 0.0 0.00 0.00 0.00 59 1014.7
20260506234727 37 0.0 0.0 0.00 0.00 0.00 63 1014.6
20260506232725 39 0.0 0.0 0.00 0.00 0.00 57 1014.7
20260506230727 39 0.0 0.0 0.00 0.00 0.00 58 1014.7
20260506224725 39 0.0 0.0 0.00 0.00 0.00 53 1014.8
20260506222726 40 0.0 0.0 0.00 0.00 0.00 56 1014.7
20260506220726 40 0.0 0.0 0.00 0.00 0.00 55 1014.7
20260506214725 40 0.0 0.0 0.00 0.00 0.00 53 1014.6
20260506212726 40 0.0 0.0 0.00 0.00 0.00 55 1014.5
20260506210725 41 0.0 0.0 0.00 0.00 0.00 54 1014.5
20260506204725 42 0.0 0.0 0.00 0.00 0.00 52 1014.5
20260506202725 41 0.0 0.0 0.00 0.00 0.00 53 1014.5
20260506200726 40 0.0 0.0 0.00 0.00 0.00 61 1014.6
20260506194725 40 0.0 0.0 0.00 0.00 0.00 61 1014.6
20260506192725 40 0.0 0.0 0.00 0.00 0.00 56 1014.7
20260506190725 41 0.0 0.0 0.00 0.00 0.00 55 1014.6
20260506184724 43 0.0 0.0 0.00 0.00 0.00 51 1014.4
20260506182725 45 0.0 0.0 0.00 0.00 0.00 47 1014.3
20260506180725 46 0.0 0.0 0.00 0.00 0.00 43 1014.3
20260506174725 47 0.0 0.0 0.00 0.00 0.00 41 1014.3
20260506172724 48 0.0 0.0 0.00 0.00 0.00 41 1014.4
20260506170724 48 0.0 0.0 0.00 0.00 0.00 42 1014.3
20260506164724 48 0.0 0.0 0.00 0.00 0.00 41 1014.4
20260506162725 48 0.0 0.0 0.00 0.00 0.00 40 1014.3
20260506160724 49 0.0 0.0 0.00 0.00 0.00 38 1014.3
20260506154724 49 0.0 0.0 0.00 0.00 0.00 38 1014.4
20260506152725 49 0.0 0.0 0.00 0.00 0.00 38 1014.4
20260506150724 49 0.0 0.0 0.00 0.00 0.00 39 1014.5
20260506144723 49 0.0 0.0 0.00 0.00 0.00 39 1014.6
20260506142724 49 0.0 0.0 0.00 0.00 0.00 52 1014.9
20260506140723 48 0.0 0.0 0.00 0.00 0.00 48 1014.8
20260506134724 47 0.0 0.0 0.00 0.00 0.00 49 1014.7
20260506130723 48 0.0 0.0 0.00 0.00 0.00 50 1014.8
20260506124723 48 0.0 0.0 0.00 0.00 0.00 60 1014.8
20260506122723 47 0.0 0.0 0.00 0.00 0.00 63 1014.9
20260506120723 48 0.0 0.0 0.00 0.00 0.00 54 1014.9
20260506114724 48 0.0 0.0 0.00 0.00 0.00 55 1014.9
20260506112724 47 0.0 0.0 0.00 0.00 0.00 63 1014.9
20260506110723 47 0.0 0.0 0.00 0.00 0.00 63 1014.8
20260506104724 47 0.0 0.0 0.00 0.00 0.00 65 1014.9
20260506102725 47 0.0 0.0 0.00 0.00 0.00 68 1014.7
20260506100725 47 0.0 0.0 0.00 0.00 0.00 68 1014.6